Temperature
17 18 18 18 15 11 13 14 13 13 13 13 13 13 12 11 12 12 12 12 13 13 13 13 13 13 13 13 13 13 14 14 14 14 14 14 14 14 14 14 14 14 14 14 14 14 14 14 14
17 17 18 17 12 13 14 13 13 13 13 13 13 12 11 11 11 11 12 12 12 13 13 13 13 13 13 13 13 13 13 13 13 13 13 13 13 14 14 14 14 14 14 14 14 14 14 14 14
17 17 18 11 12 12 14 13 12 12 13 13 11 11 11 10 11 11 11 12 12 12 12 12 12 13 13 13 13 13 13 13 13 13 13 13 13 13 13 14 14 14 14 14 14 14 14 14 14
17 17 16 11 13 12 12 12 12 12 13 12 11 10 10 10 10 11 11 12 12 12 12 12 12 12 12 13 13 13 13 13 13 13 13 13 13 13 13 13 13 13 13 13 13 13 13 13 13
17 17 12 11 12 12 11 12 12 11 11 11 11 9 9 10 10 11 11 11 12 12 12 12 12 12 12 12 12 12 12 12 12 12 13 13 13 13 13 13 13 13 13 13 13 13 13 13 13
17 13 11 11 12 12 11 12 12 10 10 10 10 9 9 10 10 11 11 11 11 11 12 11 12 12 12 12 12 12 12 12 12 12 12 12 12 12 12 12 12 13 13 13 13 13 13 13 13
15 10 11 11 11 12 11 11 11 10 9 10 10 9 9 9 10 10 10 11 11 11 11 11 11 11 11 11 11 12 12 12 12 12 12 12 12 12 12 12 12 12 13 13 13 13 13 13 13
15 10 11 10 11 11 11 11 10 10 9 10 10 9 8 9 9 10 10 10 10 10 11 11 11 11 11 11 11 11 11 11 11 11 11 11 11 11 11 12 12 12 12 12 12 12 12 12 12
15 10 10 10 11 11 11 10 10 10 9 9 9 9 9 9 9 10 10 10 10 10 10 10 10 10 10 11 11 11 11 11 11 11 11 11 11 11 11 11 11 11 12 12 12 12 12 12 12
13 10 11 11 10 10 10 9 9 9 8 8 8 8 9 9 9 9 10 10 10 10 10 10 10 10 10 10 10 10 10 10 10 10 10 10 11 11 11 11 11 11 11 11 11 11 11 12 12
11 10 10 10 11 10 9 9 9 9 7 8 8 8 8 9 9 9 9 9 9 9 9 9 9 9 9 9 9 10 10 10 10 10 10 10 10 10 10 10 10 11 11 11 11 11 11 11 11
9 9 10 10 10 10 9 8 8 8 8 8 8 8 8 8 8 8 8 8 8 8 9 8 9 9 9 9 9 9 9 9 9 9 9 9 9 10 10 10 10 10 10 10 10 10 10 11 11
9 9 9 9 9 9 8 7 7 6 7 7 8 7 7 8 7 7 7 7 8 8 8 8 8 8 8 8 8 8 8 8 8 8 8 9 9 9 9 9 9 9 9 9 9 10 10 10 10
9 8 8 9 9 8 7 7 6 6 6 7 7 6 6 7 7 7 7 7 7 7 7 7 8 8 8 8 8 8 8 8 8 8 8 8 8 8 8 8 8 8 8 9 9 9 9 9 9
9 8 8 8 8 8 8 7 5 6 6 6 5 5 5 6 6 6 6 6 6 6 7 7 7 7 7 7 7 7 7 7 7 7 7 7 7 7 7 7 8 8 8 8 8 8 8 8 8
9 8 8 8 7 7 8 8 6 5 5 4 4 4 5 5 5 5 5 6 6 6 6 6 6 6 6 7 7 7 7 7 7 7 7 7 7 7 7 7 7 7 7 7 7 7 8 8 8
8 8 8 8 7 6 7 7 5 5 4 4 4 4 4 4 5 5 5 5 5 5 6 6 6 6 6 6 6 6 6 6 6 6 6 6 6 6 6 6 6 6 6 7 7 7 7 7 7
8 8 8 7 7 6 6 5 4 4 4 3 3 3 3 4 4 4 4 5 5 5 5 5 5 5 5 5 5 6 6 6 5 5 6 6 6 5 5 5 5 6 6 6 6 6 6 6 6
8 7 7 7 6 6 5 4 3 3 3 2 2 2 3 3 4 4 4 4 4 4 5 5 5 5 5 5 5 5 5 5 5 5 5 5 5 5 5 5 5 5 5 5 5 5 6 6 6
7 8 7 6 6 6 5 4 3 3 2 2 2 2 3 3 3 3 4 4 4 4 4 4 4 4 4 4 4 4 4 4 4 4 4 4 4 4 4 4 4 4 4 4 4 4 4 5 5
7 7 7 6 5 5 5 5 4 3 2 2 2 2 3 3 3 3 3 3 3 3 3 3 4 4 4 3 3 3 3 3 4 4 3 3 3 3 3 3 3 3 3 4 4 4 4 4 4
7 6 6 6 5 4 5 5 5 2 1 1 1 2 2 2 2 3 3 3 3 3 3 3 3 3 3 3 3 3 2 3 3 3 3 3 3 3 3 3 3 3 3 3 3 3 3 3 3
6 5 5 5 5 4 3 4 4 2 2 1 1 1 2 2 2 2 2 2 2 2 2 2 2 2 2 2 2 2 2 2 2 2 2 2 2 2 2 2 2 2 2 2 2 2 2 2 2
4 4 4 3 3 5 4 3 4 2 2 2 1 1 1 1 1 2 2 2 2 2 2 2 2 2 1 1 1 1 1 1 1 1 1 1 1 1 1 1 2 2 2 2 2 2 2 2 2
5 4 5 5 4 4 3 3 3 3 1 1 1 1 1 1 1 1 1 1 1 1 1 1 1 1 1 1 1 0 0 0 0 0 0 0 1 1 1 1 1 1 1 1 1 1 1 1 1
4 5 5 5 4 3 2 2 3 2 1 1 1 1 1 1 1 1 1 1 1 0 0 0 0 0 0 -0 -0 -0 -1 -1 -1 -1 -1 -0 -0 -0 0 0 0 0 0 1 1 1 1 1 1
4 3 3 2 2 2 2 1 1 1 0 0 0 0 0 1 1 1 0 0 -0 -0 -0 -0 -0 -0 -1 -1 -1 -1 -1 -1 -1 -1 -1 -1 -1 -1 -1 -1 -0 -0 -0 0 0 0 0 0 0
3 2 1 2 3 3 3 2 2 2 1 -1 -1 -1 -0 0 0 0 0 -0 -0 -1 -1 -1 -1 -1 -1 -1 -2 -2 -2 -2 -2 -2 -2 -2 -2 -2 -1 -1 -1 -1 -1 -0 -1 -0 -0 -0 -0
2 2 2 1 1 2 2 3 2 1 0 -1 -1 -1 -0 -0 -0 -0 -0 -1 -1 -1 -1 -1 -2 -2 -2 -2 -2 -2 -2 -2 -2 -2 -2 -2 -2 -2 -2 -2 -2 -2 -1 -1 -1 -1 -1 -1 -1
2 2 1 2 1 -0 0 2 1 -0 -1 -1 -1 -1 -0 -0 -0 -1 -1 -1 -1 -2 -2 -2 -2 -2 -2 -2 -3 -3 -3 -3 -3 -3 -3 -3 -3 -3 -3 -3 -2 -2 -2 -2 -2 -2 -2 -2 -1
Wind_Speed
9 4 3 4 6 6 1 1 0 1 2 2 2 5 6 4 3 3 2 4 5 4 4 4 6 7 8 8 8 8 8 9 9 9 10 10 9 10 11 10 10 10 11 11 10 10 10 10 10
4 2 5 5 5 3 2 1 1 1 2 2 4 5 6 4 3 2 3 6 6 5 5 5 7 8 9 9 9 8 9 9 8 9 9 9 9 9 9 10 10 10 10 10 10 9 9 9 9
2 5 5 5 5 5 4 1 2 2 3 3 4 5 4 3 3 2 4 5 6 7 7 6 8 8 9 9 9 9 9 9 9 9 9 9 8 8 9 9 9 9 10 10 10 9 9 8 8
4 5 6 6 3 2 2 1 1 2 4 5 4 4 3 4 3 2 4 5 6 7 8 7 8 8 9 9 9 9 9 9 9 9 9 8 8 8 8 9 9 9 9 9 9 9 8 8 7
5 5 6 4 1 0 0 1 1 3 3 3 3 4 2 4 5 5 4 5 5 6 9 8 8 8 8 9 9 9 9 9 9 9 9 9 9 9 9 9 9 8 9 9 9 8 8 8 7
5 5 5 3 1 1 1 2 2 3 3 3 3 3 1 3 6 5 5 6 7 7 9 9 9 9 8 8 8 9 9 10 10 9 9 9 9 8 9 8 8 8 8 9 8 8 8 8 7
5 5 5 5 3 0 0 2 3 3 3 2 1 4 1 3 5 4 5 7 8 10 10 10 10 9 9 9 8 8 9 9 9 9 9 9 9 9 9 9 8 8 8 9 9 8 8 8 8
5 6 5 3 4 2 0 2 2 3 2 2 3 4 1 1 3 4 6 7 8 10 11 11 11 10 10 9 8 8 8 9 9 9 9 9 9 9 9 9 8 8 8 9 9 9 9 8 8
4 5 3 5 6 3 2 3 2 2 4 3 3 2 1 2 4 5 6 7 8 9 9 10 11 11 10 8 9 8 8 8 8 8 9 8 8 8 8 8 9 9 8 8 9 9 9 9 8
5 4 5 3 4 4 2 3 3 3 3 2 3 4 5 5 6 7 6 6 7 7 7 8 9 10 10 9 9 9 8 8 8 8 8 7 7 7 7 8 8 9 9 8 9 9 9 8 7
4 4 3 1 2 4 3 2 1 5 2 2 3 2 4 6 6 6 5 4 4 4 6 7 8 9 9 8 8 8 8 8 8 8 8 7 7 7 7 7 8 8 8 8 7 8 8 7 6
5 2 2 1 2 3 3 3 2 2 2 2 4 5 5 5 5 4 4 3 3 4 5 7 8 8 8 8 7 7 7 7 7 7 7 7 6 6 6 6 6 6 6 6 6 6 6 6 6
3 2 2 4 6 5 4 3 2 1 2 5 7 7 6 5 4 3 3 4 4 5 6 6 7 7 7 7 7 7 7 6 6 6 6 6 5 4 4 5 5 6 5 5 5 5 5 5 5
3 4 3 3 4 2 3 1 2 1 3 6 7 6 5 4 4 4 5 5 5 5 5 5 6 7 8 7 6 6 6 6 6 6 6 5 5 4 4 4 5 5 5 4 4 4 4 3 3
3 4 4 3 2 1 3 2 1 3 5 6 6 5 5 4 4 4 3 3 4 4 5 5 5 7 7 6 7 7 7 7 6 6 6 5 5 4 4 4 4 5 4 5 4 4 4 3 3
4 4 1 2 2 1 3 4 2 4 6 6 4 4 4 3 3 3 3 3 4 4 5 5 5 6 6 6 6 6 7 7 7 7 7 6 5 4 3 3 3 5 4 4 3 2 2 2 2
3 1 3 3 1 2 3 5 2 3 6 5 4 3 3 2 3 3 3 3 4 4 4 5 5 6 6 6 6 6 7 7 7 8 7 7 6 5 4 3 4 4 4 3 3 2 1 2 2
5 4 3 4 2 2 3 5 3 3 5 5 4 3 3 2 0 1 2 3 4 4 4 5 5 6 5 5 4 5 5 6 8 8 8 9 7 6 4 3 4 3 2 2 2 2 1 1 2
5 4 3 3 0 2 5 6 5 4 4 5 4 4 3 2 1 1 2 3 4 5 5 5 6 6 5 4 3 3 4 4 5 8 9 9 9 7 5 4 3 3 1 1 1 2 2 1 1
3 3 3 2 1 1 4 7 5 5 5 6 7 6 4 2 0 1 2 3 3 4 5 5 5 5 5 3 2 1 2 2 3 6 8 10 9 8 6 4 3 2 1 1 1 1 1 1 0
2 4 4 3 2 2 3 7 4 3 3 3 4 4 4 5 4 2 0 1 2 3 3 4 4 5 5 5 3 3 3 3 3 5 5 8 9 9 7 6 4 3 1 2 2 2 1 1 2
4 2 3 3 1 3 0 5 5 3 3 5 5 5 5 4 3 2 1 0 1 2 2 3 4 4 5 5 4 4 4 3 4 4 5 8 9 9 8 7 5 4 3 2 3 2 2 2 2
2 1 2 1 3 2 2 4 7 1 4 7 7 6 5 5 4 3 2 1 1 1 2 2 3 4 4 4 4 4 3 3 4 5 6 6 7 8 8 8 6 4 3 3 3 3 3 3 3
3 4 4 4 3 4 5 6 7 4 5 4 6 7 6 5 4 3 1 1 1 1 2 2 2 3 3 3 3 3 3 4 5 6 6 6 5 6 8 8 7 6 4 4 4 4 4 4 4
3 4 3 4 2 6 2 5 8 4 3 4 5 7 6 5 4 3 2 1 1 1 1 2 2 3 3 3 3 3 3 3 4 5 5 6 5 5 7 7 6 6 6 5 4 4 4 5 5
3 4 5 5 5 5 2 7 6 2 1 1 3 4 4 4 3 3 3 2 2 2 2 2 2 3 3 3 3 3 3 3 3 4 5 5 5 6 7 7 7 7 7 7 5 5 5 5 6
4 2 3 4 1 4 6 6 6 1 0 0 2 3 4 3 3 3 2 2 2 2 2 2 2 3 3 3 3 3 3 3 4 5 5 5 5 6 8 8 7 7 7 7 5 5 6 5 6
3 6 4 3 3 6 6 6 5 5 4 2 2 3 3 3 2 2 2 2 2 3 3 3 3 3 3 3 3 4 4 4 4 5 6 6 6 7 7 7 7 7 7 7 5 5 5 6 6
3 3 3 3 3 4 5 7 4 5 4 5 5 4 4 4 3 3 3 3 2 2 2 3 3 3 4 4 4 4 5 5 5 5 6 6 7 7 7 7 7 7 7 6 5 5 6 6 6
4 5 6 4 5 4 4 8 2 3 2 3 4 4 3 3 3 3 2 2 2 2 3 3 3 4 4 4 4 5 5 5 5 6 6 7 7 7 7 7 7 7 7 6 6 6 6 6 6
Wind_Direction
342 11 64 56 57 55 99 270 191 33 50 36 55 89 103 94 98 122 324 358 0 358 9 37 66 67 64 59 55 54 55 57 60 58 58 58 57 56 57 56 53 53 54 54 56 57 58 61 64
339 26 53 59 87 93 258 264 137 81 135 112 56 65 71 62 41 46 353 348 3 18 32 47 67 67 65 61 57 54 54 56 59 59 57 55 56 56 55 53 52 49 50 51 52 53 56 58 61
36 49 76 73 100 158 182 187 147 50 56 74 64 51 73 47 9 357 342 353 20 29 34 47 66 66 63 60 58 54 55 56 56 55 56 53 53 56 56 55 54 51 49 48 48 49 52 53 56
69 47 56 73 109 195 191 215 146 99 53 45 82 66 53 31 351 345 356 29 41 29 32 42 62 62 61 59 57 55 55 54 54 52 53 54 52 54 55 54 53 50 48 47 44 44 46 50 53
57 74 66 64 96 352 0 356 88 82 55 33 74 90 47 7 19 31 34 45 50 35 34 38 52 55 58 57 56 56 54 52 52 50 49 52 51 50 52 52 49 47 46 44 41 44 41 43 46
55 68 92 144 164 358 19 0 81 73 69 50 75 99 94 10 25 26 39 46 43 42 38 39 42 45 49 53 54 54 53 52 49 46 44 45 44 45 49 48 47 44 45 41 38 41 40 42 47
98 92 132 154 150 144 37 45 90 95 77 39 104 107 92 6 13 26 45 51 46 43 39 34 35 38 41 45 49 52 52 52 49 44 43 42 42 42 43 43 44 45 43 39 34 36 37 42 46
112 100 102 143 155 196 129 67 77 96 115 36 74 120 174 302 11 45 50 47 44 41 35 30 30 32 35 37 40 46 48 48 46 43 41 41 40 38 36 36 39 42 40 38 34 33 34 39 44
86 81 152 186 177 186 137 99 57 61 90 54 45 80 79 82 66 62 48 36 31 30 26 25 26 28 31 36 35 35 39 40 42 40 40 40 33 31 30 29 32 34 37 38 36 34 38 39 40
73 130 190 190 175 158 130 114 139 97 67 59 49 45 60 74 74 68 57 42 28 19 15 21 23 24 28 32 32 31 32 32 34 35 36 38 36 32 30 27 28 29 31 33 33 31 38 36 34
80 140 149 96 121 127 117 98 90 126 135 194 172 135 81 77 73 69 57 50 29 15 18 16 19 23 27 27 31 30 29 28 29 32 34 36 38 32 29 26 19 19 23 25 23 29 31 30 29
94 63 91 88 80 90 118 123 91 105 180 145 143 130 107 91 77 65 51 28 19 27 18 13 19 24 27 29 30 29 29 28 26 25 33 37 34 29 24 22 14 15 16 15 14 18 21 24 24
91 99 61 76 75 77 83 84 117 86 67 90 99 98 97 92 77 56 49 33 23 20 14 9 17 22 28 32 28 30 24 23 20 23 25 33 34 25 21 16 12 8 9 10 8 7 10 13 15
105 94 87 58 66 62 96 70 91 177 113 100 101 100 93 84 76 55 38 26 16 9 4 7 19 20 28 32 26 22 18 19 21 20 15 21 29 27 20 15 10 4 360 2 5 0 360 360 5
93 77 48 41 68 111 110 22 202 166 127 113 112 109 95 77 68 59 37 25 12 5 1 10 19 22 25 23 19 19 15 17 16 11 8 14 22 22 22 18 7 356 355 4 11 10 10 6 4
63 73 46 305 88 122 137 251 208 155 140 138 136 127 109 78 64 53 37 28 16 13 13 14 22 23 20 17 15 17 15 15 10 4 3 3 8 14 20 17 358 354 3 10 10 16 9 356 347
47 157 229 269 172 121 164 241 235 164 156 160 162 154 136 94 48 34 31 28 22 17 15 17 16 16 14 12 14 18 19 15 8 6 2 355 354 2 11 2 353 357 4 7 4 9 6 338 335
206 207 223 238 237 139 213 247 246 188 179 181 175 170 160 146 201 16 24 22 24 22 20 19 16 11 11 12 15 16 17 11 8 5 2 358 352 351 357 355 352 359 6 0 3 349 350 305 322
160 167 215 246 225 188 237 255 248 206 190 191 192 190 187 197 228 27 20 21 25 21 19 15 14 6 12 5 3 359 347 344 355 357 357 356 353 346 344 346 346 348 325 309 343 350 339 341 357
142 178 231 283 4 225 273 271 249 205 205 202 197 197 198 198 275 354 11 23 22 16 9 10 8 5 9 1 344 333 323 328 339 346 352 354 353 348 339 336 335 326 303 301 309 341 331 311 356
188 193 214 223 351 20 328 293 233 218 203 201 197 194 195 194 200 218 331 7 11 6 359 4 4 6 8 10 7 3 359 344 352 346 346 347 348 348 338 333 329 316 288 257 263 243 249 278 264
236 220 178 176 171 276 241 283 263 211 221 216 211 203 205 202 194 196 197 309 335 330 348 360 4 9 11 20 24 21 8 347 329 326 326 335 340 342 337 334 330 327 310 262 252 251 246 229 255
184 67 109 151 165 281 239 225 278 166 240 232 217 210 206 199 191 193 201 223 288 334 350 351 5 12 13 21 22 22 5 339 326 330 331 333 336 337 334 331 327 321 315 291 267 251 244 237 242
126 68 58 58 84 261 220 196 269 223 225 232 211 205 200 195 189 191 203 209 321 350 359 359 4 2 7 14 11 13 356 342 338 335 335 332 330 331 333 329 326 321 312 290 280 260 246 244 246
76 85 21 340 316 250 187 215 251 239 224 214 203 197 192 186 180 188 206 249 285 308 328 343 352 347 350 359 356 346 335 330 324 320 323 324 325 322 324 327 322 317 308 296 284 262 249 243 244
185 150 173 222 242 278 263 238 256 246 268 229 191 175 170 177 187 199 213 225 245 267 294 314 330 329 332 340 336 330 324 323 316 312 310 310 310 307 315 320 315 309 305 300 292 270 255 247 243
139 184 156 138 219 273 264 277 297 192 295 159 156 153 176 193 201 213 230 236 248 270 281 286 302 312 314 317 319 319 321 320 314 312 312 308 306 310 317 318 315 311 306 299 288 272 265 254 249
135 140 109 143 210 261 280 270 254 244 244 229 201 195 206 206 216 225 232 244 259 270 287 297 293 295 299 306 307 315 312 309 306 308 309 308 307 309 311 312 312 310 306 301 289 278 272 262 258
135 150 149 151 180 200 267 268 231 214 215 214 220 214 211 217 228 236 248 258 263 283 298 303 300 303 304 302 301 304 303 304 304 303 302 304 305 308 309 310 310 310 306 301 290 284 279 271 268
187 184 157 176 232 212 238 270 294 214 231 204 216 224 225 228 235 238 247 267 274 285 300 302 301 301 298 297 298 298 300 302 304 303 301 303 303 304 306 306 307 306 306 302 289 286 285 279 274
Height
1509 1510 1511 1513 1518 1533 1537 1535 1533 1533 1533 1534 1534 1534 1536 1540 1542 1549 1546 1543 1543 1544 1544 1544 1544 1544 1544 1544 1544 1544 1544 1544 1544 1544 1544 1544 1543 1544 1544 1543 1544 1544 1544 1544 1544 1544 1544 1544 1544
1509 1511 1513 1514 1527 1541 1539 1534 1534 1533 1534 1534 1534 1535 1537 1540 1542 1543 1543 1543 1543 1544 1544 1544 1544 1544 1544 1544 1544 1544 1544 1544 1544 1544 1544 1544 1544 1544 1544 1544 1544 1544 1544 1544 1544 1544 1545 1545 1545
1510 1511 1513 1519 1532 1539 1535 1533 1533 1533 1534 1534 1535 1537 1539 1542 1543 1543 1543 1543 1543 1544 1544 1544 1544 1544 1544 1544 1544 1544 1544 1544 1544 1544 1544 1544 1544 1544 1544 1544 1544 1544 1544 1544 1544 1544 1545 1545 1545
1511 1513 1515 1526 1533 1534 1533 1532 1532 1533 1534 1535 1536 1539 1541 1543 1543 1544 1543 1544 1544 1544 1544 1544 1544 1544 1544 1544 1544 1544 1544 1544 1544 1544 1544 1544 1544 1544 1543 1543 1543 1543 1544 1544 1544 1544 1545 1545 1545
1511 1512 1523 1534 1534 1533 1533 1532 1532 1533 1534 1536 1537 1540 1542 1544 1543 1543 1543 1544 1544 1544 1544 1544 1544 1544 1544 1544 1544 1544 1544 1544 1544 1543 1543 1543 1543 1543 1543 1543 1543 1543 1543 1543 1544 1544 1544 1545 1545
1512 1514 1531 1537 1534 1533 1533 1532 1532 1534 1536 1537 1538 1540 1543 1544 1543 1543 1544 1544 1544 1544 1544 1544 1544 1543 1543 1543 1543 1543 1543 1543 1543 1543 1543 1542 1542 1542 1542 1542 1542 1543 1543 1543 1543 1543 1544 1544 1545
1513 1521 1530 1533 1535 1534 1533 1533 1533 1535 1536 1537 1538 1540 1542 1543 1543 1543 1544 1544 1544 1544 1544 1544 1544 1543 1543 1543 1543 1543 1542 1542 1542 1542 1542 1541 1541 1541 1541 1541 1542 1542 1542 1542 1542 1542 1543 1543 1544
1513 1521 1531 1534 1534 1533 1533 1533 1534 1535 1536 1538 1539 1540 1541 1543 1543 1543 1543 1544 1544 1544 1544 1543 1543 1543 1542 1542 1542 1542 1542 1541 1541 1541 1541 1541 1541 1540 1541 1541 1541 1541 1541 1541 1541 1541 1542 1542 1543
1513 1525 1532 1532 1532 1531 1531 1533 1535 1536 1536 1537 1538 1540 1541 1542 1542 1543 1543 1543 1543 1543 1543 1543 1543 1542 1542 1541 1541 1541 1541 1540 1540 1540 1540 1540 1540 1540 1540 1540 1540 1539 1540 1540 1540 1540 1540 1541 1541
1514 1527 1527 1527 1527 1529 1530 1532 1534 1535 1536 1538 1539 1539 1540 1541 1541 1541 1542 1542 1542 1542 1542 1542 1542 1542 1541 1541 1540 1540 1540 1539 1539 1539 1539 1539 1539 1539 1539 1539 1539 1539 1538 1538 1538 1539 1539 1539 1540
1517 1524 1525 1526 1526 1527 1529 1532 1533 1534 1537 1537 1537 1538 1539 1540 1540 1541 1541 1541 1541 1541 1541 1541 1541 1541 1540 1540 1539 1539 1538 1538 1538 1538 1538 1538 1537 1537 1537 1537 1537 1537 1537 1537 1537 1537 1537 1538 1538
1520 1524 1525 1526 1526 1528 1529 1532 1534 1534 1536 1536 1537 1537 1538 1539 1539 1540 1541 1541 1541 1541 1540 1540 1540 1540 1539 1539 1539 1538 1537 1537 1536 1536 1536 1536 1536 1535 1535 1535 1535 1535 1535 1535 1535 1535 1536 1536 1536
1521 1525 1526 1527 1527 1528 1530 1532 1533 1535 1536 1536 1536 1537 1538 1538 1539 1540 1540 1540 1540 1540 1540 1539 1539 1539 1538 1538 1538 1537 1536 1536 1535 1535 1534 1534 1534 1534 1533 1533 1533 1533 1533 1533 1533 1533 1533 1534 1534
1523 1525 1526 1527 1528 1529 1531 1533 1534 1535 1535 1535 1536 1536 1537 1538 1538 1539 1539 1539 1539 1539 1539 1539 1538 1538 1537 1537 1536 1536 1535 1535 1534 1533 1533 1532 1532 1532 1531 1531 1531 1531 1531 1531 1531 1531 1531 1531 1531
1523 1526 1528 1528 1529 1530 1532 1534 1535 1534 1534 1535 1535 1536 1537 1537 1538 1538 1539 1539 1539 1538 1538 1538 1538 1537 1537 1536 1535 1535 1534 1533 1533 1532 1531 1531 1530 1530 1529 1529 1529 1529 1528 1528 1528 1529 1528 1528 1529
1525 1529 1531 1530 1529 1530 1534 1534 1534 1534 1534 1534 1535 1536 1536 1537 1537 1538 1538 1538 1538 1538 1538 1537 1537 1536 1536 1535 1534 1533 1533 1532 1531 1530 1530 1529 1528 1528 1527 1527 1527 1526 1526 1525 1525 1525 1525 1525 1525
1530 1533 1532 1531 1530 1530 1533 1533 1533 1532 1533 1533 1534 1535 1535 1536 1536 1537 1537 1537 1537 1537 1537 1536 1536 1535 1534 1534 1533 1532 1531 1530 1529 1529 1527 1527 1526 1525 1524 1524 1524 1523 1523 1523 1522 1522 1522 1522 1522
1531 1532 1532 1532 1530 1531 1533 1533 1532 1532 1532 1532 1533 1533 1534 1534 1535 1536 1537 1537 1536 1536 1535 1535 1534 1533 1533 1532 1531 1530 1530 1529 1528 1526 1525 1524 1523 1522 1522 1521 1521 1521 1520 1519 1519 1519 1519 1519 1519
1526 1529 1530 1530 1530 1532 1532 1531 1530 1530 1530 1530 1531 1531 1532 1533 1534 1535 1535 1535 1535 1534 1534 1533 1532 1532 1531 1530 1529 1528 1527 1526 1525 1524 1523 1522 1520 1519 1519 1518 1518 1517 1517 1516 1516 1516 1515 1515 1516
1525 1528 1530 1531 1530 1531 1532 1530 1527 1527 1527 1527 1528 1529 1530 1531 1532 1533 1533 1533 1533 1533 1532 1532 1531 1530 1529 1528 1527 1526 1525 1523 1523 1522 1520 1519 1517 1516 1515 1515 1514 1514 1513 1513 1513 1512 1512 1512 1513
1525 1527 1528 1530 1532 1532 1532 1527 1525 1524 1525 1525 1526 1527 1528 1529 1530 1530 1531 1531 1531 1531 1531 1530 1529 1528 1527 1526 1525 1524 1523 1521 1520 1519 1517 1516 1515 1513 1512 1511 1511 1510 1509 1509 1509 1509 1509 1509 1510
1525 1525 1527 1529 1533 1535 1534 1534 1520 1522 1523 1523 1523 1524 1525 1527 1528 1528 1529 1529 1529 1529 1529 1528 1527 1526 1525 1524 1523 1521 1520 1518 1517 1516 1514 1513 1512 1510 1509 1508 1507 1506 1506 1505 1505 1505 1505 1506 1506
1525 1526 1528 1529 1532 1536 1536 1537 1522 1522 1521 1520 1520 1521 1522 1524 1525 1526 1527 1527 1528 1528 1527 1526 1525 1524 1523 1522 1521 1519 1518 1516 1515 1513 1511 1510 1508 1507 1506 1505 1503 1503 1502 1501 1501 1501 1501 1501 1502
1525 1528 1531 1534 1536 1535 1531 1535 1521 1520 1515 1514 1515 1517 1518 1521 1523 1524 1525 1525 1526 1525 1525 1524 1523 1522 1521 1519 1518 1517 1515 1514 1512 1510 1508 1506 1505 1504 1502 1501 1500 1499 1498 1498 1497 1497 1497 1497 1497
1525 1531 1536 1535 1538 1531 1530 1529 1519 1512 1512 1511 1512 1513 1515 1518 1520 1521 1522 1522 1523 1523 1522 1521 1520 1519 1518 1517 1515 1514 1512 1511 1509 1507 1505 1503 1501 1500 1498 1497 1496 1495 1494 1493 1493 1492 1492 1492 1493
1527 1527 1534 1535 1536 1533 1532 1530 1515 1511 1510 1510 1510 1512 1514 1516 1517 1519 1520 1520 1520 1520 1520 1519 1517 1516 1515 1514 1512 1511 1509 1508 1506 1504 1502 1500 1498 1496 1494 1493 1491 1491 1489 1488 1487 1487 1486 1487 1487
1527 1530 1530 1538 1541 1539 1531 1525 1515 1511 1510 1510 1510 1510 1512 1514 1515 1516 1517 1518 1518 1517 1517 1516 1514 1513 1512 1510 1509 1508 1506 1504 1503 1501 1499 1497 1495 1492 1490 1489 1487 1486 1484 1483 1482 1481 1481 1481 1481
1524 1528 1536 1537 1536 1534 1526 1524 1516 1509 1509 1510 1510 1509 1511 1512 1513 1514 1515 1515 1515 1514 1514 1513 1512 1510 1509 1507 1506 1504 1503 1501 1499 1497 1495 1493 1491 1488 1486 1484 1482 1480 1479 1478 1477 1475 1475 1475 1474
1527 1529 1530 1536 1537 1537 1533 1519 1507 1506 1506 1507 1508 1508 1509 1510 1511 1511 1512 1512 1512 1511 1510 1509 1508 1506 1505 1503 1502 1500 1498 1497 1494 1492 1490 1488 1486 1484 1481 1479 1477 1475 1474 1473 1471 1470 1469 1469 1468
1523 1524 1529 1533 1534 1538 1535 1519 1505 1505 1504 1505 1506 1507 1507 1508 1509 1509 1509 1509 1509 1508 1507 1505 1504 1502 1501 1499 1498 1496 1494 1492 1490 1488 1486 1484 1482 1479 1477 1475 1472 1470 1469 1467 1466 1464 1463 1462 1462